OSCAR 25 (19419 NORAD) Tracking and Keplerian Element Data

This shows tracking and keplerian element data for the satellite.

Feedback or suggestion? Click here.




ElementValue
Catalog19419
NameOSCAR 25
Epoch Orbit82739
Epoch Day354.12362021
Epoch Year2025
RAAN20.2683
Inclination90.0339
Eccentricity0.0094843
Argument of Perigee224.454
Mean Anonmoly196.6413
Mean Motion13.42624651
Decay Rate8.7E-07
L11 19419U 88074A 25354.12362021 .00000087 00000+0 13432-3 0 9997
L22 19419 90.0339 20.2683 0094843 224.4540 196.6413 13.42624651827393



Live tracking and technical data element details for OSCAR 25 (NORAD 19419). OSCAR 25 can be tracked NOW for your location showing map with azimuth and elevation plus other details from your city location.







IsCatalogInMostPopularTable: catalog: 19419, numindb: 363
Update: records affected: 1



GetName: 19419 OSCAR 25

Hit Count: updated at: Sat, 07 Mar 2026 03:13:24 GMT